Hourly Data Report for June 24, 2021

WESTERN HEAD
NOVA SCOTIA
Current Station Operator: ECCC - MSC

43°59'24.070" N
64°39'51.008" W
10.10 m
8206240
71411
WWE

Download Data

Hourly Data (June 2021)
Hourly Data Report for June 24, 2021
TIME
LST
Temp Definition
°C
Dew Point Definition
°C
Rel Hum Definition
%
Precip. Amount Definition
mm

Wind Dir Definition
10's deg

Wind Spd Definition
km/h
Visibility Definition
km
Stn Press Definition
kPa
Hmdx Definition


Wind Chill Definition


Weather Definition


00:00 11.5 9.3 86 0.0 29 15   102.38     LegendNANA
01:00 11.3 9.6 90 0.0 29 15   102.45     LegendNANA
02:00 10.9 10.9 100 0.0 29 16   102.50     LegendNANA
03:00 11.2 11.2 100 0.0 29 17   102.56     LegendNANA
04:00 10.9 10.9 100 0.0 29 17   102.64     LegendNANA
05:00 11.1 10.8 99 0.0 30 14   102.71     LegendNANA
06:00 10.9 10.9 100 0.0 9 3   102.81     LegendNANA
07:00 12.5 11.2 92 0.0 16 3   102.89     LegendNANA
08:00 13.7 10.7 82 0.0 15 3   102.93     LegendNANA
09:00 15.9 10.5 70 0.0 17 5   102.98     LegendNANA
10:00 16.5 11.0 70 0.0 17 7   103.01     LegendNANA
11:00 16.0 12.4 79 0.0 17 10   103.03     LegendNANA
12:00 17.4 12.5 73 0.0 16 10   103.03     LegendNANA
13:00 17.0 13.6 80 0.0 20 10   103.05     LegendNANA
14:00 16.9 12.8 77 0.0 20 11   103.07     LegendNANA
15:00 17.3 11.9 70 0.0 19 12   103.07     LegendNANA
16:00 16.2 13.0 81 0.0 21 10   103.08     LegendNANA
17:00 15.8 11.1 74 0.0 21 12   103.06     LegendNANA
18:00 14.4 10.8 79 0.0 22 9   103.03     LegendNANA
19:00 14.8 10.5 75 0.0 22 11   103.06     LegendNANA
20:00 13.0 8.8 75 0.0 23 11   103.05     LegendNANA
21:00 9.5 7.6 88 0.0 23 9   103.08     LegendNANA
22:00 8.6 5.6 81 0.0 24 10   103.09     LegendNANA
23:00 8.4 5.5 82 0.0 22 5   103.07     LegendNANA

Notes on Data Quality.

Legend

  • E = Estimated
  • M = Missing
  • NA = Not Available*
  • [empty] = Indicates an unobserved value
Date modified: